{"data":{"norad_id":68046,"epoch":"2026-05-25T04:00:03.998880Z","epoch_age_seconds":54458,"freshness":"FRESH","line1":"1 68046U 26041G   26145.16671295  .00059669  00000+0  17655-2 0  9992","line2":"2 68046  53.1604  54.7367 0000838  78.4268   9.2225 15.34358449  5855","mean_motion":15.34358449,"eccentricity":8.38e-5,"inclination_deg":53.1604,"raan_deg":54.7367,"arg_perigee_deg":78.4268,"mean_anomaly_deg":9.2225,"bstar":0.0017655,"rev_number":585,"period_min":93.850299513683,"perigee_km":462.25346856103,"apogee_km":463.40001408408,"semimajor_km":6840.9637413226,"source":"CELESTRAK","updated_at":"2026-05-25T13:38:21.811311Z"}}